| time (UTC) | temp C | wind direction | speed KPH | gust KPH | rain 1hr cm | rain 24hr cm | rain mn cm | humidity % | barometer mb |
| 20260504050634 | 10 | 284 | 3.2 | 4.8 | 0.00 | 0.23 | 0.00 | 77 | 983.7 |
| 20260504050129 | 10 | 284 | 1.6 | 4.8 | 0.00 | 0.23 | 0.00 | 77 | 983.7 |
| 20260504045622 | 10 | 284 | 1.6 | 4.8 | 0.00 | 0.23 | 0.23 | 77 | 983.8 |
| 20260504045116 | 10 | 284 | 1.6 | 4.8 | 0.00 | 0.23 | 0.23 | 76 | 983.8 |
| 20260504044610 | 10 | 284 | 0.0 | 4.8 | 0.00 | 0.23 | 0.23 | 76 | 983.9 |
| 20260504044104 | 10 | 283 | 0.0 | 3.2 | 0.00 | 0.23 | 0.23 | 76 | 983.8 |
| 20260504043559 | 10 | 283 | 3.2 | 9.7 | 0.00 | 0.23 | 0.23 | 76 | 983.9 |
| 20260504043053 | 10 | 283 | 3.2 | 9.7 | 0.00 | 0.23 | 0.23 | 76 | 983.8 |
| 20260504042546 | 10 | 287 | 3.2 | 4.8 | 0.00 | 0.23 | 0.23 | 75 | 983.8 |
| 20260504041535 | 11 | 289 | 1.6 | 4.8 | 0.00 | 0.23 | 0.23 | 74 | 983.8 |
| 20260504041029 | 11 | 289 | 1.6 | 4.8 | 0.00 | 0.23 | 0.23 | 74 | 983.7 |
| 20260504040522 | 11 | 289 | 3.2 | 4.8 | 0.00 | 0.23 | 0.23 | 73 | 983.7 |
| 20260504040017 | 11 | 288 | 3.2 | 4.8 | 0.00 | 0.23 | 0.23 | 73 | 983.7 |
| 20260504035510 | 11 | 288 | 3.2 | 4.8 | 0.00 | 0.23 | 0.23 | 73 | 983.6 |
| 20260504034459 | 11 | 288 | 1.6 | 4.8 | 0.00 | 0.23 | 0.23 | 72 | 983.8 |
| 20260504033952 | 11 | 288 | 3.2 | 6.4 | 0.00 | 0.23 | 0.23 | 72 | 983.9 |
| 20260504033446 | 11 | 288 | 3.2 | 6.4 | 0.00 | 0.23 | 0.23 | 72 | 983.9 |
| 20260504032941 | 11 | 294 | 3.2 | 6.4 | 0.00 | 0.23 | 0.23 | 71 | 983.8 |
| 20260504031928 | 12 | 301 | 1.6 | 4.8 | 0.00 | 0.23 | 0.23 | 70 | 983.8 |
| 20260504030917 | 12 | 304 | 0.0 | 1.6 | 0.00 | 0.23 | 0.23 | 69 | 983.9 |
| 20260504030410 | 12 | 304 | 1.6 | 4.8 | 0.00 | 0.23 | 0.23 | 69 | 983.9 |
| 20260504025358 | 12 | 304 | 1.6 | 6.4 | 0.00 | 0.23 | 0.23 | 68 | 983.7 |
| 20260504024852 | 13 | 284 | 0.0 | 0.0 | 0.00 | 0.23 | 0.23 | 69 | 983.6 |
| 20260504023840 | 13 | 290 | 3.2 | 6.4 | 0.00 | 0.23 | 0.23 | 67 | 983.6 |
| 20260504023334 | 13 | 291 | 3.2 | 6.4 | 0.00 | 0.23 | 0.23 | 66 | 983.4 |
| 20260504022829 | 13 | 292 | 4.8 | 6.4 | 0.00 | 0.23 | 0.23 | 66 | 983.4 |
| 20260504022322 | 13 | 286 | 3.2 | 6.4 | 0.00 | 0.23 | 0.23 | 65 | 983.4 |
| 20260504021310 | 14 | 288 | 4.8 | 9.7 | 0.00 | 0.23 | 0.23 | 63 | 983.3 |
| 20260504020804 | 14 | 287 | 4.8 | 9.7 | 0.00 | 0.23 | 0.23 | 62 | 983.3 |
| 20260504020259 | 15 | 286 | 4.8 | 6.4 | 0.00 | 0.23 | 0.23 | 61 | 983.3 |
| 20260504015753 | 15 | 286 | 4.8 | 6.4 | 0.00 | 0.23 | 0.23 | 61 | 983.2 |
| 20260504015246 | 15 | 280 | 4.8 | 6.4 | 0.00 | 0.23 | 0.23 | 59 | 983.2 |
| 20260504014235 | 16 | 279 | 4.8 | 6.4 | 0.00 | 0.23 | 0.23 | 58 | 983.3 |
| 20260504013728 | 16 | 276 | 3.2 | 6.4 | 0.00 | 0.23 | 0.23 | 57 | 983.2 |
| 20260504013223 | 16 | 279 | 3.2 | 6.4 | 0.00 | 0.23 | 0.23 | 56 | 983.1 |
| 20260504012717 | 16 | 279 | 3.2 | 6.4 | 0.00 | 0.23 | 0.23 | 55 | 983.1 |
| 20260504011705 | 17 | 283 | 3.2 | 6.4 | 0.00 | 0.23 | 0.23 | 53 | 982.8 |
| 20260504011158 | 18 | 279 | 3.2 | 6.4 | 0.00 | 0.23 | 0.23 | 51 | 982.7 |
| 20260504010147 | 19 | 275 | 4.8 | 6.4 | 0.00 | 0.23 | 0.23 | 47 | 982.5 |
| 20260504005647 | 20 | 281 | 3.2 | 6.4 | 0.00 | 0.23 | 0.23 | 45 | 982.5 |
| 20260504005144 | 20 | 285 | 3.2 | 6.4 | 0.00 | 0.23 | 0.23 | 41 | 982.5 |
| 20260504004643 | 21 | 289 | 3.2 | 6.4 | 0.00 | 0.23 | 0.23 | 39 | 982.4 |
| 20260504004143 | 21 | 291 | 3.2 | 6.4 | 0.00 | 0.23 | 0.23 | 36 | 982.4 |
| 20260504003645 | 22 | 289 | 3.2 | 8.0 | 0.00 | 0.23 | 0.23 | 34 | 982.4 |
| 20260504003142 | 22 | 300 | 4.8 | 11.3 | 0.00 | 0.23 | 0.23 | 31 | 982.4 |
| 20260504002642 | 22 | 311 | 4.8 | 11.3 | 0.00 | 0.23 | 0.23 | 31 | 982.4 |
| 20260504001643 | 23 | 326 | 6.4 | 16.1 | 0.00 | 0.23 | 0.23 | 30 | 982.3 |
| 20260504000640 | 23 | 321 | 8.0 | 16.1 | 0.00 | 0.23 | 0.23 | 30 | 982.2 |
| 20260504000141 | 23 | 287 | 8.0 | 16.1 | 0.00 | 0.23 | 0.23 | 29 | 982.1 |
| 20260503235640 | 23 | 279 | 9.7 | 22.5 | 0.00 | 0.23 | 0.23 | 30 | 982.2 |
| 20260503235141 | 23 | 311 | 9.7 | 22.5 | 0.00 | 0.23 | 0.23 | 30 | 982.1 |
| 20260503234636 | 23 | 13 | 9.7 | 17.7 | 0.00 | 0.23 | 0.23 | 29 | 982.1 |
| 20260503234137 | 23 | 313 | 14.5 | 27.4 | 0.00 | 0.23 | 0.23 | 29 | 982.2 |
| 20260503233636 | 23 | 321 | 14.5 | 27.4 | 0.00 | 0.23 | 0.23 | 29 | 982.2 |
| 20260503233137 | 23 | 349 | 12.9 | 22.5 | 0.00 | 0.23 | 0.23 | 30 | 982.1 |
| 20260503232636 | 24 | 341 | 11.3 | 24.1 | 0.00 | 0.23 | 0.23 | 29 | 982.1 |
| 20260503231637 | 24 | 9 | 11.3 | 20.9 | 0.00 | 0.23 | 0.23 | 29 | 982.1 |
| 20260503231136 | 24 | 284 | 12.9 | 27.4 | 0.00 | 0.23 | 0.23 | 29 | 982.2 |
| 20260503230637 | 24 | 274 | 14.5 | 29.0 | 0.00 | 0.23 | 0.23 | 29 | 982.1 |
| 20260503230137 | 24 | 309 | 14.5 | 29.0 | 0.00 | 0.23 | 0.23 | 30 | 982.1 |
| 20260503225636 | 24 | 298 | 14.5 | 27.4 | 0.00 | 0.23 | 0.23 | 32 | 982.0 |
| 20260503225136 | 24 | 262 | 12.9 | 27.4 | 0.00 | 0.23 | 0.23 | 32 | 981.8 |
| 20260503224636 | 24 | 292 | 11.3 | 24.1 | 0.00 | 0.23 | 0.23 | 32 | 981.9 |
| 20260503224137 | 24 | 337 | 12.9 | 27.4 | 0.00 | 0.23 | 0.23 | 33 | 982.0 |
| 20260503223134 | 24 | 277 | 11.3 | 22.5 | 0.00 | 0.23 | 0.23 | 32 | 982.0 |
| 20260503222634 | 24 | 304 | 11.3 | 22.5 | 0.00 | 0.23 | 0.23 | 33 | 982.0 |
| 20260503222133 | 24 | 321 | 11.3 | 22.5 | 0.00 | 0.23 | 0.23 | 32 | 982.0 |
| 20260503221628 | 24 | 294 | 11.3 | 25.7 | 0.00 | 0.23 | 0.23 | 32 | 981.9 |
| 20260503221122 | 24 | 318 | 9.7 | 25.7 | 0.00 | 0.23 | 0.23 | 32 | 981.9 |
| 20260503220615 | 24 | 279 | 9.7 | 19.3 | 0.00 | 0.23 | 0.23 | 33 | 982.0 |
| 20260503220110 | 24 | 303 | 12.9 | 22.5 | 0.00 | 0.23 | 0.23 | 32 | 982.0 |
| 20260503215100 | 24 | 296 | 14.5 | 25.7 | 0.00 | 0.23 | 0.23 | 33 | 982.1 |
| 20260503214600 | 25 | 283 | 11.3 | 25.7 | 0.00 | 0.23 | 0.23 | 32 | 982.1 |
| 20260503214100 | 24 | 267 | 8.0 | 19.3 | 0.00 | 0.23 | 0.23 | 34 | 982.0 |
| 20260503213558 | 24 | 272 | 9.7 | 19.3 | 0.00 | 0.23 | 0.23 | 34 | 982.1 |
| 20260503212558 | 24 | 269 | 12.9 | 24.1 | 0.00 | 0.23 | 0.23 | 33 | 982.1 |
| 20260503212056 | 24 | 299 | 11.3 | 24.1 | 0.00 | 0.23 | 0.23 | 35 | 982.0 |
| 20260503211556 | 24 | 256 | 11.3 | 24.1 | 0.00 | 0.23 | 0.23 | 35 | 982.1 |
| 20260503211059 | 23 | 290 | 12.9 | 24.1 | 0.00 | 0.23 | 0.23 | 35 | 982.1 |
| 20260503210556 | 23 | 286 | 14.5 | 25.7 | 0.00 | 0.23 | 0.23 | 35 | 982.2 |
| 20260503205554 | 23 | 336 | 16.1 | 29.0 | 0.00 | 0.23 | 0.23 | 36 | 982.3 |
| 20260503204052 | 23 | 251 | 11.3 | 20.9 | 0.00 | 0.23 | 0.23 | 37 | 982.5 |
| 20260503203552 | 23 | 296 | 9.7 | 20.9 | 0.00 | 0.23 | 0.23 | 37 | 982.6 |
| 20260503203046 | 23 | 284 | 8.0 | 20.9 | 0.00 | 0.23 | 0.23 | 37 | 982.7 |
| 20260503202539 | 23 | 154 | 9.7 | 20.9 | 0.00 | 0.23 | 0.23 | 39 | 982.8 |
| 20260503202034 | 23 | 306 | 9.7 | 30.6 | 0.00 | 0.23 | 0.23 | 38 | 983.0 |
| 20260503201527 | 23 | 194 | 9.7 | 30.6 | 0.00 | 0.23 | 0.23 | 38 | 983.0 |
| 20260503201021 | 23 | 303 | 8.0 | 25.7 | 0.00 | 0.23 | 0.23 | 39 | 983.1 |
| 20260503200009 | 22 | 161 | 9.7 | 24.1 | 0.00 | 0.23 | 0.23 | 39 | 983.3 |
| 20260503195504 | 22 | 299 | 9.7 | 19.3 | 0.00 | 0.23 | 0.23 | 39 | 983.3 |
| 20260503194958 | 22 | 275 | 9.7 | 19.3 | 0.00 | 0.23 | 0.23 | 40 | 983.3 |
| 20260503194451 | 22 | 267 | 11.3 | 22.5 | 0.00 | 0.23 | 0.23 | 40 | 983.4 |
| 20260503193946 | 22 | 313 | 9.7 | 24.1 | 0.00 | 0.23 | 0.23 | 40 | 983.5 |
| 20260503193439 | 22 | 331 | 9.7 | 24.1 | 0.00 | 0.23 | 0.23 | 42 | 983.5 |
| 20260503192933 | 22 | 187 | 8.0 | 22.5 | 0.00 | 0.23 | 0.23 | 41 | 983.6 |
| 20260503192427 | 21 | 303 | 8.0 | 33.8 | 0.00 | 0.23 | 0.23 | 42 | 983.8 |
| 20260503191922 | 21 | 327 | 9.7 | 33.8 | 0.00 | 0.23 | 0.23 | 40 | 984.0 |
| 20260503191415 | 21 | 323 | 8.0 | 25.7 | 0.00 | 0.23 | 0.23 | 41 | 983.9 |
| 20260503190910 | 21 | 307 | 8.0 | 30.6 | 0.00 | 0.23 | 0.23 | 42 | 984.0 |
| 20260503190404 | 21 | 329 | 9.7 | 30.6 | 0.00 | 0.23 | 0.23 | 43 | 984.1 |
| 20260503185352 | 20 | 263 | 12.9 | 29.0 | 0.00 | 0.23 | 0.23 | 43 | 984.2 |
| 20260503184340 | 20 | 195 | 9.7 | 30.6 | 0.00 | 0.23 | 0.23 | 43 | 984.3 |
| 20260503183833 | 20 | 232 | 8.0 | 24.1 | 0.00 | 0.23 | 0.23 | 43 | 984.4 |
| 20260503183328 | 20 | 309 | 6.4 | 16.1 | 0.00 | 0.23 | 0.23 | 43 | 984.5 |
| 20260503182821 | 20 | 184 | 9.7 | 27.4 | 0.00 | 0.23 | 0.23 | 45 | 984.6 |
| 20260503182316 | 19 | 257 | 12.9 | 27.4 | 0.00 | 0.23 | 0.23 | 45 | 984.7 |
| 20260503181303 | 19 | 209 | 12.9 | 33.8 | 0.00 | 0.23 | 0.23 | 45 | 984.8 |
| 20260503180758 | 19 | 271 | 12.9 | 27.4 | 0.00 | 0.23 | 0.23 | 45 | 984.8 |
| 20260503180251 | 19 | 350 | 11.3 | 27.4 | 0.00 | 0.23 | 0.23 | 45 | 984.9 |
| 20260503175746 | 19 | 200 | 9.7 | 27.4 | 0.00 | 0.23 | 0.23 | 45 | 984.9 |
| 20260503175240 | 18 | 244 | 9.7 | 24.1 | 0.00 | 0.23 | 0.23 | 46 | 984.9 |
| 20260503174733 | 19 | 249 | 9.7 | 32.2 | 0.00 | 0.23 | 0.23 | 45 | 985.1 |
| 20260503174234 | 18 | 221 | 9.7 | 32.2 | 0.00 | 0.23 | 0.23 | 46 | 985.0 |
| 20260503173734 | 18 | 179 | 11.3 | 30.6 | 0.00 | 0.23 | 0.23 | 47 | 985.1 |
| 20260503173234 | 18 | 263 | 12.9 | 30.6 | 0.00 | 0.23 | 0.23 | 47 | 985.2 |
| 20260503172732 | 18 | 263 | 11.3 | 29.0 | 0.00 | 0.23 | 0.23 | 47 | 985.3 |
| 20260503172231 | 18 | 198 | 9.7 | 29.0 | 0.00 | 0.23 | 0.23 | 47 | 985.3 |
| 20260503171732 | 17 | 171 | 12.9 | 30.6 | 0.00 | 0.23 | 0.23 | 48 | 985.3 |
| 20260503171232 | 17 | 171 | 14.5 | 30.6 | 0.00 | 0.23 | 0.23 | 50 | 985.4 |
| 20260503170732 | 17 | 198 | 14.5 | 30.6 | 0.00 | 0.23 | 0.23 | 50 | 985.5 |
| 20260503170231 | 17 | 195 | 14.5 | 37.0 | 0.00 | 0.23 | 0.23 | 51 | 985.5 |
| 20260503160210 | 16 | 153 | 11.3 | 29.0 | 0.00 | 0.23 | 0.23 | 51 | 986.1 |
| 20260503150710 | 13 | 221 | 11.3 | 27.4 | 0.00 | 0.23 | 0.23 | 57 | 986.8 |
| 20260503140201 | 12 | 169 | 6.4 | 12.9 | 0.00 | 0.23 | 0.23 | 67 | 988.0 |
| 20260503130701 | 10 | 217 | 9.7 | 20.9 | 0.03 | 0.23 | 0.23 | 70 | 988.3 |
| 20260503130201 | 10 | 166 | 6.4 | 16.1 | 0.03 | 0.23 | 0.23 | 72 | 988.4 |
| 20260503120137 | 10 | 164 | 6.4 | 12.9 | 0.15 | 0.20 | 0.20 | 78 | 989.5 |
| 20260503110531 | 10 | 194 | 3.2 | 16.1 | 0.05 | 0.05 | 0.05 | 78 | 990.3 |
| 20260503090308 | 11 | 240 | 4.8 | 14.5 | 0.00 | 0.00 | 0.00 | 54 | 990.5 |
| 20260503081207 | 11 | 200 | 3.2 | 12.9 | 0.00 | 0.00 | 0.00 | 52 | 990.2 |
| 20260503080701 | 11 | 212 | 4.8 | 16.1 | 0.00 | 0.00 | 0.00 | 52 | 990.3 |
| 20260503080156 | 11 | 161 | 6.4 | 16.1 | 0.00 | 0.00 | 0.00 | 52 | 990.3 |
| 20260503072652 | 11 | 190 | 8.0 | 16.1 | 0.00 | 0.00 | 0.00 | 50 | 990.5 |
| 20260503072151 | 11 | 201 | 8.0 | 17.7 | 0.00 | 0.00 | 0.00 | 50 | 990.6 |
| 20260503071650 | 11 | 184 | 8.0 | 17.7 | 0.00 | 0.00 | 0.00 | 49 | 990.6 |
| 20260503071151 | 11 | 192 | 8.0 | 17.7 | 0.00 | 0.00 | 0.00 | 49 | 990.7 |
| 20260503070649 | 11 | 205 | 8.0 | 16.1 | 0.00 | 0.00 | 0.00 | 49 | 990.8 |
| 20260503070148 | 11 | 183 | 6.4 | 16.1 | 0.00 | 0.00 | 0.00 | 49 | 990.8 |
| 20260503060147 | 11 | 196 | 6.4 | 16.1 | 0.00 | 0.00 | 0.00 | 47 | 991.2 |
| 20260503054644 | 11 | 197 | 4.8 | 14.5 | 0.00 | 0.00 | 0.00 | 48 | 991.3 |
| 20260503054144 | 11 | 183 | 3.2 | 14.5 | 0.00 | 0.00 | 0.00 | 47 | 991.4 |
| 20260503053645 | 11 | 209 | 4.8 | 12.9 | 0.00 | 0.00 | 0.00 | 47 | 991.4 |
| 20260503053144 | 11 | 259 | 4.8 | 17.7 | 0.00 | 0.00 | 0.00 | 47 | 991.4 |
| 20260503052144 | 11 | 214 | 4.8 | 14.5 | 0.00 | 0.00 | 0.00 | 47 | 991.4 |